owner,sensor,date,latitude,longitude,vertical_datum,direction_of_sea_water_velocity,sea_water_speed,upward_sea_water_velocity,qcFlag 
TABS,ioos:station:wmo:42046:1,2004-11-01T00:00:00Z,27.8903,-94.0367,2.0,63.5648487,13.81446344,-99999.0,'11111222,11111222,99999999' 
TABS,ioos:station:wmo:42046:1,2004-11-01T00:30:00Z,27.8903,-94.0367,2.0,56.79445632,18.36955361,-99999.0,'11111222,11111222,99999999' 
TABS,ioos:station:wmo:42046:1,2004-11-01T01:00:00Z,27.8903,-94.0367,2.0,51.9596704,23.6929441,-99999.0,'11111222,11111222,99999999' 
TABS,ioos:station:wmo:42046:1,2004-11-01T01:30:00Z,27.8903,-94.0367,2.0,50.7018349,18.22036224,-99999.0,'11111222,11111222,99999999' 
TABS,ioos:station:wmo:42046:1,2004-11-01T02:00:00Z,27.8903,-94.0367,2.0,44.11591339,17.87071627,-99999.0,'11111222,11111222,99999999' 
TABS,ioos:station:wmo:42046:1,2004-11-01T02:30:00Z,27.8903,-94.0367,2.0,37.78554739,16.27207731,-99999.0,'11111222,11111222,99999999' 
TABS,ioos:station:wmo:42046:1,2004-11-01T03:00:00Z,27.8903,-94.0367,2.0,39.01353916,17.96657174,-99999.0,'11111222,11111222,99999999' 
TABS,ioos:station:wmo:42046:1,2004-11-01T03:30:00Z,27.8903,-94.0367,2.0,30.60074978,16.77632856,-99999.0,'11111222,11111222,99999999' 
TABS,ioos:station:wmo:42046:1,2004-11-01T04:00:00Z,27.8903,-94.0367,2.0,31.98133324,17.57794641,-99999.0,'11111222,11111222,99999999' 
TABS,ioos:station:wmo:42046:1,2004-11-01T04:30:00Z,27.8903,-94.0367,2.0,26.17850812,19.87909706,-99999.0,'11111222,11111222,99999999' 
TABS,ioos:station:wmo:42046:1,2004-11-01T05:00:00Z,27.8903,-94.0367,2.0,25.39277975,22.29379286,-99999.0,'11111222,11111222,99999999' 
TABS,ioos:station:wmo:42046:1,2004-11-01T05:30:00Z,27.8903,-94.0367,2.0,26.51859876,21.9939719,-99999.0,'11111222,11111222,99999999' 
TABS,ioos:station:wmo:42046:1,2004-11-01T06:00:00Z,27.8903,-94.0367,2.0,21.54446944,25.24367842,-99999.0,'11111222,11111222,99999999' 
TABS,ioos:station:wmo:42046:1,2004-11-01T06:30:00Z,27.8903,-94.0367,2.0,35.34425472,29.59449273,-99999.0,'11111222,11111222,99999999' 
TABS,ioos:station:wmo:42046:1,2004-11-01T07:00:00Z,27.8903,-94.0367,2.0,38.64284043,31.41903881,-99999.0,'11111222,11111222,99999999' 
TABS,ioos:station:wmo:42046:1,2004-11-01T07:30:00Z,27.8903,-94.0367,2.0,39.73225676,34.96562026,-99999.0,'11111222,11111222,99999999' 
TABS,ioos:station:wmo:42046:1,2004-11-01T08:00:00Z,27.8903,-94.0367,2.0,39.84072899,33.49701479,-99999.0,'11111222,11111222,99999999' 
TABS,ioos:station:wmo:42046:1,2004-11-01T08:30:00Z,27.8903,-94.0367,2.0,42.41156284,34.13151623,-99999.0,'11111222,11111222,99999999' 
TABS,ioos:station:wmo:42046:1,2004-11-01T09:00:00Z,27.8903,-94.0367,2.0,39.31408423,37.75434412,-99999.0,'11111222,11111222,99999999' 
TABS,ioos:station:wmo:42046:1,2004-11-01T09:30:00Z,27.8903,-94.0367,2.0,43.56828553,37.07104126,-99999.0,'11111222,11111222,99999999' 
TABS,ioos:station:wmo:42046:1,2004-11-01T10:00:00Z,27.8903,-94.0367,2.0,46.06017927,35.92717356,-99999.0,'11111222,11111222,99999999' 
TABS,ioos:station:wmo:42046:1,2004-11-01T10:30:00Z,27.8903,-94.0367,2.0,49.05197639,34.2246607,-99999.0,'11111222,11111222,99999999' 
TABS,ioos:station:wmo:42046:1,2004-11-01T11:00:00Z,27.8903,-94.0367,2.0,49.23333425,37.93370269,-99999.0,'11111222,11111222,99999999' 
TABS,ioos:station:wmo:42046:1,2004-11-01T11:30:00Z,27.8903,-94.0367,2.0,49.87898723,38.82649224,-99999.0,'11111222,11111222,99999999' 
TABS,ioos:station:wmo:42046:1,2004-11-01T12:00:00Z,27.8903,-94.0367,2.0,50.0520995,21.11846822,-99999.0,'11111222,11111222,99999999' 
TABS,ioos:station:wmo:42046:1,2004-11-01T12:30:00Z,27.8903,-94.0367,2.0,58.05877046,39.80718528,-99999.0,'11111222,11111222,99999999' 
TABS,ioos:station:wmo:42046:1,2004-11-01T13:00:00Z,27.8903,-94.0367,2.0,61.60672517,42.33242847,-99999.0,'11111222,11111222,99999999' 
TABS,ioos:station:wmo:42046:1,2004-11-01T13:30:00Z,27.8903,-94.0367,2.0,58.8625458,42.41008017,-99999.0,'11111222,11111222,99999999' 
TABS,ioos:station:wmo:42046:1,2004-11-01T14:00:00Z,27.8903,-94.0367,2.0,63.80307213,41.77061168,-99999.0,'11111222,11111222,99999999' 
TABS,ioos:station:wmo:42046:1,2004-11-01T14:30:00Z,27.8903,-94.0367,2.0,65.99905618,40.78646467,-99999.0,'11111222,11111222,99999999' 
TABS,ioos:station:wmo:42046:1,2004-11-01T15:00:00Z,27.8903,-94.0367,2.0,68.27803128,40.20493626,-99999.0,'11111222,11111222,99999999' 
TABS,ioos:station:wmo:42046:1,2004-11-01T15:30:00Z,27.8903,-94.0367,2.0,72.58573791,37.9913069,-99999.0,'11111222,11111222,99999999' 
TABS,ioos:station:wmo:42046:1,2004-11-01T16:00:00Z,27.8903,-94.0367,2.0,73.4321863,37.17333587,-99999.0,'11111222,11111222,99999999' 
TABS,ioos:station:wmo:42046:1,2004-11-01T16:30:00Z,27.8903,-94.0367,2.0,78.86802049,35.99729018,-99999.0,'11111222,11111222,99999999' 
TABS,ioos:station:wmo:42046:1,2004-11-01T17:00:00Z,27.8903,-94.0367,2.0,84.92953171,34.73593096,-99999.0,'11111222,11111222,99999999' 
TABS,ioos:station:wmo:42046:1,2004-11-01T17:30:00Z,27.8903,-94.0367,2.0,84.33569504,30.80039123,-99999.0,'11111222,11111222,99999999' 
TABS,ioos:station:wmo:42046:1,2004-11-01T18:00:00Z,27.8903,-94.0367,2.0,92.18335156,28.6107707,-99999.0,'11111222,11111222,99999999' 
TABS,ioos:station:wmo:42046:1,2004-11-01T18:30:00Z,27.8903,-94.0367,2.0,93.38451004,26.08549789,-99999.0,'11111222,11111222,99999999' 
TABS,ioos:station:wmo:42046:1,2004-11-01T19:00:00Z,27.8903,-94.0367,2.0,86.36488035,29.17870628,-99999.0,'11111222,11111222,99999999' 
TABS,ioos:station:wmo:42046:1,2004-11-01T19:30:00Z,27.8903,-94.0367,2.0,90.63079217,26.34159638,-99999.0,'11111222,11111222,99999999' 
TABS,ioos:station:wmo:42046:1,2004-11-01T20:00:00Z,27.8903,-94.0367,2.0,77.44464559,28.06104239,-99999.0,'11111222,11111222,99999999' 
TABS,ioos:station:wmo:42046:1,2004-11-01T20:30:00Z,27.8903,-94.0367,2.0,95.26144435,23.99108376,-99999.0,'11111222,11111222,99999999' 
TABS,ioos:station:wmo:42046:1,2004-11-01T21:00:00Z,27.8903,-94.0367,2.0,94.0167405,27.2669782,-99999.0,'11111222,11111222,99999999' 
TABS,ioos:station:wmo:42046:1,2004-11-01T21:30:00Z,27.8903,-94.0367,2.0,92.83613917,25.06069632,-99999.0,'11111222,11111222,99999999' 
TABS,ioos:station:wmo:42046:1,2004-11-01T22:00:00Z,27.8903,-94.0367,2.0,92.67343331,24.22636787,-99999.0,'11111222,11111222,99999999' 
TABS,ioos:station:wmo:42046:1,2004-11-01T22:30:00Z,27.8903,-94.0367,2.0,100.9576488,20.09640018,-99999.0,'11111222,11111222,99999999' 
TABS,ioos:station:wmo:42046:1,2004-11-01T23:00:00Z,27.8903,-94.0367,2.0,99.26561888,21.55119022,-99999.0,'11111222,11111222,99999999' 
TABS,ioos:station:wmo:42046:1,2004-11-01T23:30:00Z,27.8903,-94.0367,2.0,108.3649233,18.12302679,-99999.0,'11111222,11111222,99999999' 
TABS,ioos:station:wmo:42046:1,2004-11-02T00:00:00Z,27.8903,-94.0367,2.0,103.3522731,10.56560457,-99999.0,'11111222,11111222,99999999' 
TABS,ioos:station:wmo:42046:1,2004-11-02T00:30:00Z,27.8903,-94.0367,2.0,104.4615459,14.3754826,-99999.0,'11111222,11111222,99999999' 
TABS,ioos:station:wmo:42046:1,2004-11-02T01:00:00Z,27.8903,-94.0367,2.0,113.108378,13.35125462,-99999.0,'11111222,11111222,99999999' 
TABS,ioos:station:wmo:42046:1,2004-11-02T01:30:00Z,27.8903,-94.0367,2.0,128.1543412,11.50889221,-99999.0,'11111222,11111222,99999999' 
TABS,ioos:station:wmo:42046:1,2004-11-02T02:00:00Z,27.8903,-94.0367,2.0,116.7140991,6.87369624,-99999.0,'11133222,11111222,99999999' 
TABS,ioos:station:wmo:42046:1,2004-11-02T02:30:00Z,27.8903,-94.0367,2.0,138.5485684,5.483520767,-99999.0,'11133222,11111222,99999999' 
TABS,ioos:station:wmo:42046:1,2004-11-02T03:00:00Z,27.8903,-94.0367,2.0,140.8206054,2.928378391,-99999.0,'11133222,11111222,99999999' 
TABS,ioos:station:wmo:42046:1,2004-11-02T03:30:00Z,27.8903,-94.0367,2.0,18.92481062,1.85,-99999.0,'11133222,11111222,99999999' 
TABS,ioos:station:wmo:42046:1,2004-11-02T04:00:00Z,27.8903,-94.0367,2.0,304.25334,2.540649523,-99999.0,'11133222,11111222,99999999' 
TABS,ioos:station:wmo:42046:1,2004-11-02T04:30:00Z,27.8903,-94.0367,2.0,1.330365684,6.461741251,-99999.0,'11133222,11111222,99999999' 
TABS,ioos:station:wmo:42046:1,2004-11-02T05:00:00Z,27.8903,-94.0367,2.0,342.3588225,11.41691727,-99999.0,'11111222,11111222,99999999' 
TABS,ioos:station:wmo:42046:1,2004-11-02T05:30:00Z,27.8903,-94.0367,2.0,3.753868427,14.51113021,-99999.0,'11111222,11111222,99999999' 
TABS,ioos:station:wmo:42046:1,2004-11-02T06:00:00Z,27.8903,-94.0367,2.0,352.369018,16.56672569,-99999.0,'11111222,11111222,99999999' 
TABS,ioos:station:wmo:42046:1,2004-11-02T06:30:00Z,27.8903,-94.0367,2.0,6.329923695,18.14058709,-99999.0,'11111222,11111222,99999999' 
TABS,ioos:station:wmo:42046:1,2004-11-02T07:00:00Z,27.8903,-94.0367,2.0,6.319816547,21.53083603,-99999.0,'11111222,11111222,99999999' 
TABS,ioos:station:wmo:42046:1,2004-11-02T07:30:00Z,27.8903,-94.0367,2.0,2.944408362,20.63724061,-99999.0,'11111222,11111222,99999999' 
TABS,ioos:station:wmo:42046:1,2004-11-02T08:00:00Z,27.8903,-94.0367,2.0,31.06139133,21.16467103,-99999.0,'11111222,11111222,99999999' 
TABS,ioos:station:wmo:42046:1,2004-11-02T08:30:00Z,27.8903,-94.0367,2.0,8.925746066,20.88287576,-99999.0,'11111222,11111222,99999999' 
TABS,ioos:station:wmo:42046:1,2004-11-02T09:00:00Z,27.8903,-94.0367,2.0,19.61275,25.23398106,-99999.0,'11111222,11111222,99999999' 
TABS,ioos:station:wmo:42046:1,2004-11-02T09:30:00Z,27.8903,-94.0367,2.0,21.12594408,22.83468633,-99999.0,'11111222,11111222,99999999' 
TABS,ioos:station:wmo:42046:1,2004-11-02T10:00:00Z,27.8903,-94.0367,2.0,22.94798876,25.80196117,-99999.0,'11111222,11111222,99999999' 
TABS,ioos:station:wmo:42046:1,2004-11-02T10:30:00Z,27.8903,-94.0367,2.0,24.59458115,24.57997966,-99999.0,'11111222,11111222,99999999' 
TABS,ioos:station:wmo:42046:1,2004-11-02T11:00:00Z,27.8903,-94.0367,2.0,32.15648344,20.51739018,-99999.0,'11111222,11111222,99999999' 
TABS,ioos:station:wmo:42046:1,2004-11-02T11:30:00Z,27.8903,-94.0367,2.0,31.32691267,22.19579239,-99999.0,'11111222,11111222,99999999' 
TABS,ioos:station:wmo:42046:1,2004-11-02T12:00:00Z,27.8903,-94.0367,2.0,43.82926234,9.689385945,-99999.0,'11133222,11111222,99999999' 
TABS,ioos:station:wmo:42046:1,2004-11-02T12:30:00Z,27.8903,-94.0367,2.0,50.38603695,22.59991593,-99999.0,'11111222,11111222,99999999' 
TABS,ioos:station:wmo:42046:1,2004-11-02T13:00:00Z,27.8903,-94.0367,2.0,55.77963395,23.96962244,-99999.0,'11111222,11111222,99999999' 
TABS,ioos:station:wmo:42046:1,2004-11-02T13:30:00Z,27.8903,-94.0367,2.0,62.4950113,25.89715235,-99999.0,'11111222,11111222,99999999' 
TABS,ioos:station:wmo:42046:1,2004-11-02T14:00:00Z,27.8903,-94.0367,2.0,65.88347897,23.030165,-99999.0,'11111222,11111222,99999999' 
TABS,ioos:station:wmo:42046:1,2004-11-02T14:30:00Z,27.8903,-94.0367,2.0,64.4610919,29.96811639,-99999.0,'11111222,11111222,99999999' 
TABS,ioos:station:wmo:42046:1,2004-11-02T15:00:00Z,27.8903,-94.0367,2.0,72.23049237,31.58695933,-99999.0,'11111222,11111222,99999999' 
TABS,ioos:station:wmo:42046:1,2004-11-02T15:30:00Z,27.8903,-94.0367,2.0,63.91795131,29.18172373,-99999.0,'11111222,11111222,99999999' 
TABS,ioos:station:wmo:42046:1,2004-11-02T16:00:00Z,27.8903,-94.0367,2.0,66.72608717,31.93900437,-99999.0,'11111222,11111222,99999999' 
TABS,ioos:station:wmo:42046:1,2004-11-02T16:30:00Z,27.8903,-94.0367,2.0,65.94796461,33.76131662,-99999.0,'11111222,11111222,99999999' 
TABS,ioos:station:wmo:42046:1,2004-11-02T17:00:00Z,27.8903,-94.0367,2.0,66.24205305,36.98421961,-99999.0,'11111222,11111222,99999999' 
TABS,ioos:station:wmo:42046:1,2004-11-02T17:30:00Z,27.8903,-94.0367,2.0,65.8952022,36.77696698,-99999.0,'11111222,11111222,99999999' 
TABS,ioos:station:wmo:42046:1,2004-11-02T18:00:00Z,27.8903,-94.0367,2.0,68.14100266,40.60973405,-99999.0,'11111222,11111222,99999999' 
TABS,ioos:station:wmo:42046:1,2004-11-02T18:30:00Z,27.8903,-94.0367,2.0,73.92470267,42.3978207,-99999.0,'11111222,11111222,99999999' 
TABS,ioos:station:wmo:42046:1,2004-11-02T19:00:00Z,27.8903,-94.0367,2.0,75.3917135,40.32355763,-99999.0,'11111222,11111222,99999999' 
TABS,ioos:station:wmo:42046:1,2004-11-02T19:30:00Z,27.8903,-94.0367,2.0,78.82948473,37.88778827,-99999.0,'11111222,11111222,99999999' 
TABS,ioos:station:wmo:42046:1,2004-11-02T20:00:00Z,27.8903,-94.0367,2.0,83.16564399,35.21019313,-99999.0,'11111222,11111222,99999999' 
TABS,ioos:station:wmo:42046:1,2004-11-02T20:30:00Z,27.8903,-94.0367,2.0,85.39418541,34.37099358,-99999.0,'11111222,11111222,99999999' 
TABS,ioos:station:wmo:42046:1,2004-11-02T21:00:00Z,27.8903,-94.0367,2.0,94.87883018,32.21672857,-99999.0,'11111222,11111222,99999999' 
TABS,ioos:station:wmo:42046:1,2004-11-02T21:30:00Z,27.8903,-94.0367,2.0,102.9665977,32.22162162,-99999.0,'11111222,11111222,99999999' 
TABS,ioos:station:wmo:42046:1,2004-11-02T22:00:00Z,27.8903,-94.0367,2.0,107.2290385,32.00617597,-99999.0,'11111222,11111222,99999999' 
TABS,ioos:station:wmo:42046:1,2004-11-02T22:30:00Z,27.8903,-94.0367,2.0,110.930632,33.11515967,-99999.0,'11111222,11111222,99999999' 
TABS,ioos:station:wmo:42046:1,2004-11-02T23:00:00Z,27.8903,-94.0367,2.0,120.4826828,32.07308061,-99999.0,'11111222,11111222,99999999' 
TABS,ioos:station:wmo:42046:1,2004-11-02T23:30:00Z,27.8903,-94.0367,2.0,127.012003,29.81809182,-99999.0,'11111222,11111222,99999999' 
TABS,ioos:station:wmo:42046:1,2004-11-03T00:00:00Z,27.8903,-94.0367,2.0,137.4469377,18.217541,-99999.0,'11111222,11111222,99999999' 
TABS,ioos:station:wmo:42046:1,2004-11-03T00:30:00Z,27.8903,-94.0367,2.0,142.4443487,32.0902976,-99999.0,'11111222,11111222,99999999' 
TABS,ioos:station:wmo:42046:1,2004-11-03T01:00:00Z,27.8903,-94.0367,2.0,147.3482213,33.36237551,-99999.0,'11111222,11111222,99999999' 
TABS,ioos:station:wmo:42046:1,2004-11-03T01:30:00Z,27.8903,-94.0367,2.0,151.4278125,33.32891387,-99999.0,'11111222,11111222,99999999' 
TABS,ioos:station:wmo:42046:1,2004-11-03T02:00:00Z,27.8903,-94.0367,2.0,158.1481213,29.60727613,-99999.0,'11111222,11111222,99999999' 
TABS,ioos:station:wmo:42046:1,2004-11-03T02:30:00Z,27.8903,-94.0367,2.0,162.3170929,33.481919,-99999.0,'11111222,11111222,99999999' 
TABS,ioos:station:wmo:42046:1,2004-11-03T03:00:00Z,27.8903,-94.0367,2.0,168.0111226,32.44773028,-99999.0,'11111222,11111222,99999999' 
TABS,ioos:station:wmo:42046:1,2004-11-03T03:30:00Z,27.8903,-94.0367,2.0,179.2135862,28.42267581,-99999.0,'11111222,11111222,99999999' 
TABS,ioos:station:wmo:42046:1,2004-11-03T04:00:00Z,27.8903,-94.0367,2.0,183.9582243,28.24738749,-99999.0,'11111222,11111222,99999999' 
TABS,ioos:station:wmo:42046:1,2004-11-03T04:30:00Z,27.8903,-94.0367,2.0,191.2248411,23.8359812,-99999.0,'11111222,11111222,99999999' 
TABS,ioos:station:wmo:42046:1,2004-11-03T05:00:00Z,27.8903,-94.0367,2.0,189.0507252,21.29514968,-99999.0,'11111222,11111222,99999999' 
TABS,ioos:station:wmo:42046:1,2004-11-03T05:30:00Z,27.8903,-94.0367,2.0,193.3763545,21.69867507,-99999.0,'11111222,11111222,99999999' 
TABS,ioos:station:wmo:42046:1,2004-11-03T06:00:00Z,27.8903,-94.0367,2.0,188.6996926,22.61015038,-99999.0,'11111222,11111222,99999999' 
TABS,ioos:station:wmo:42046:1,2004-11-03T06:30:00Z,27.8903,-94.0367,2.0,185.5165684,18.82720638,-99999.0,'11111222,11111222,99999999' 
TABS,ioos:station:wmo:42046:1,2004-11-03T07:00:00Z,27.8903,-94.0367,2.0,198.0996368,16.22276179,-99999.0,'11111222,11111222,99999999' 
TABS,ioos:station:wmo:42046:1,2004-11-03T07:30:00Z,27.8903,-94.0367,2.0,186.8464784,17.36382734,-99999.0,'11111222,11111222,99999999' 
TABS,ioos:station:wmo:42046:1,2004-11-03T08:00:00Z,27.8903,-94.0367,2.0,191.1099867,10.69035547,-99999.0,'11111222,11111222,99999999' 
TABS,ioos:station:wmo:42046:1,2004-11-03T08:30:00Z,27.8903,-94.0367,2.0,196.5710693,7.292907513,-99999.0,'11133222,11111222,99999999' 
TABS,ioos:station:wmo:42046:1,2004-11-03T09:00:00Z,27.8903,-94.0367,2.0,238.3074655,3.102660149,-99999.0,'11133222,11111222,99999999' 
TABS,ioos:station:wmo:42046:1,2004-11-03T09:30:00Z,27.8903,-94.0367,2.0,229.526149,3.404732001,-99999.0,'11133222,11111222,99999999' 
TABS,ioos:station:wmo:42046:1,2004-11-03T10:00:00Z,27.8903,-94.0367,2.0,190.7840622,3.420409332,-99999.0,'11133222,11111222,99999999' 
TABS,ioos:station:wmo:42046:1,2004-11-03T10:30:00Z,27.8903,-94.0367,2.0,223.6743146,2.751381471,-99999.0,'11133222,11111222,99999999' 
TABS,ioos:station:wmo:42046:1,2004-11-03T11:00:00Z,27.8903,-94.0367,2.0,280.6410157,1.678868667,-99999.0,'11133222,11111222,99999999' 
TABS,ioos:station:wmo:42046:1,2004-11-03T11:30:00Z,27.8903,-94.0367,2.0,90.0,1.56,-99999.0,'11133222,11111222,99999999' 
TABS,ioos:station:wmo:42046:1,2004-11-03T12:00:00Z,27.8903,-94.0367,2.0,59.38146619,3.985699437,-99999.0,'11133222,11111222,99999999' 
TABS,ioos:station:wmo:42046:1,2004-11-03T12:30:00Z,27.8903,-94.0367,2.0,43.66506702,6.676900479,-99999.0,'11133222,11111222,99999999' 
TABS,ioos:station:wmo:42046:1,2004-11-03T13:00:00Z,27.8903,-94.0367,2.0,39.96274851,7.006204393,-99999.0,'11133222,11111222,99999999' 
TABS,ioos:station:wmo:42046:1,2004-11-03T13:30:00Z,27.8903,-94.0367,2.0,25.94702625,9.119215975,-99999.0,'11133222,11111222,99999999' 
TABS,ioos:station:wmo:42046:1,2004-11-03T14:00:00Z,27.8903,-94.0367,2.0,56.56225461,8.819818592,-99999.0,'11133222,11111222,99999999' 
TABS,ioos:station:wmo:42046:1,2004-11-03T14:30:00Z,27.8903,-94.0367,2.0,53.88855318,8.008701518,-99999.0,'11133222,11111222,99999999' 
TABS,ioos:station:wmo:42046:1,2004-11-03T15:00:00Z,27.8903,-94.0367,2.0,45.00010523,10.0833427,-99999.0,'11111222,11111222,99999999' 
TABS,ioos:station:wmo:42046:1,2004-11-03T15:30:00Z,27.8903,-94.0367,2.0,54.61076242,8.978997717,-99999.0,'11133222,11111222,99999999' 
TABS,ioos:station:wmo:42046:1,2004-11-03T16:00:00Z,27.8903,-94.0367,2.0,54.14592525,10.94371966,-99999.0,'11111222,11111222,99999999' 
TABS,ioos:station:wmo:42046:1,2004-11-03T16:30:00Z,27.8903,-94.0367,2.0,41.63767969,11.81488045,-99999.0,'11111222,11111222,99999999' 
TABS,ioos:station:wmo:42046:1,2004-11-03T17:00:00Z,27.8903,-94.0367,2.0,53.78124743,12.32079543,-99999.0,'11111222,11111222,99999999' 
TABS,ioos:station:wmo:42046:1,2004-11-03T17:30:00Z,27.8903,-94.0367,2.0,48.71538565,13.64047287,-99999.0,'11111222,11111222,99999999' 
TABS,ioos:station:wmo:42046:1,2004-11-03T18:00:00Z,27.8903,-94.0367,2.0,50.18465364,14.86764272,-99999.0,'11111222,11111222,99999999' 
TABS,ioos:station:wmo:42046:1,2004-11-03T18:30:00Z,27.8903,-94.0367,2.0,44.71039809,18.17994774,-99999.0,'11111222,11111222,99999999' 
TABS,ioos:station:wmo:42046:1,2004-11-03T19:00:00Z,27.8903,-94.0367,2.0,47.48430326,19.73975937,-99999.0,'11111222,11111222,99999999' 
TABS,ioos:station:wmo:42046:1,2004-11-03T19:30:00Z,27.8903,-94.0367,2.0,50.05996224,21.80730153,-99999.0,'11111222,11111222,99999999' 
TABS,ioos:station:wmo:42046:1,2004-11-03T20:00:00Z,27.8903,-94.0367,2.0,50.90259117,22.89730333,-99999.0,'11111222,11111222,99999999' 
TABS,ioos:station:wmo:42046:1,2004-11-03T20:30:00Z,27.8903,-94.0367,2.0,49.56783688,23.52946451,-99999.0,'11111222,11111222,99999999' 
TABS,ioos:station:wmo:42046:1,2004-11-03T21:00:00Z,27.8903,-94.0367,2.0,52.58362703,24.11109703,-99999.0,'11111222,11111222,99999999' 
TABS,ioos:station:wmo:42046:1,2004-11-03T21:30:00Z,27.8903,-94.0367,2.0,55.02684037,27.49506319,-99999.0,'11111222,11111222,99999999' 
TABS,ioos:station:wmo:42046:1,2004-11-03T22:00:00Z,27.8903,-94.0367,2.0,60.07874646,26.58325037,-99999.0,'11111222,11111222,99999999' 
TABS,ioos:station:wmo:42046:1,2004-11-03T22:30:00Z,27.8903,-94.0367,2.0,59.34861963,23.28299379,-99999.0,'11111222,11111222,99999999' 
TABS,ioos:station:wmo:42046:1,2004-11-03T23:00:00Z,27.8903,-94.0367,2.0,73.37306863,25.05771338,-99999.0,'11111222,11111222,99999999' 
TABS,ioos:station:wmo:42046:1,2004-11-03T23:30:00Z,27.8903,-94.0367,2.0,74.09498387,25.36088721,-99999.0,'11111222,11111222,99999999' 
TABS,ioos:station:wmo:42046:1,2004-11-04T00:00:00Z,27.8903,-94.0367,2.0,83.06884377,12.09841725,-99999.0,'11111222,11111222,99999999' 
TABS,ioos:station:wmo:42046:1,2004-11-04T00:30:00Z,27.8903,-94.0367,2.0,75.749576,20.75876923,-99999.0,'11111222,11111222,99999999' 
TABS,ioos:station:wmo:42046:1,2004-11-04T01:00:00Z,27.8903,-94.0367,2.0,85.21262935,22.04691588,-99999.0,'11111222,11111222,99999999' 
TABS,ioos:station:wmo:42046:1,2004-11-04T01:30:00Z,27.8903,-94.0367,2.0,80.87408907,19.04101888,-99999.0,'11111222,11111222,99999999' 
TABS,ioos:station:wmo:42046:1,2004-11-04T02:00:00Z,27.8903,-94.0367,2.0,84.17677749,18.72663611,-99999.0,'11111222,11111222,99999999' 
TABS,ioos:station:wmo:42046:1,2004-11-04T02:30:00Z,27.8903,-94.0367,2.0,92.20378565,18.46365619,-99999.0,'11111222,11111222,99999999' 
TABS,ioos:station:wmo:42046:1,2004-11-04T03:00:00Z,27.8903,-94.0367,2.0,103.0537628,16.69133008,-99999.0,'11111222,11111222,99999999' 
TABS,ioos:station:wmo:42046:1,2004-11-04T03:30:00Z,27.8903,-94.0367,2.0,104.6195085,18.10622269,-99999.0,'11111222,11111222,99999999' 
TABS,ioos:station:wmo:42046:1,2004-11-04T04:00:00Z,27.8903,-94.0367,2.0,114.8923496,15.01488595,-99999.0,'11111222,11111222,99999999' 
TABS,ioos:station:wmo:42046:1,2004-11-04T04:30:00Z,27.8903,-94.0367,2.0,114.8747318,14.85842858,-99999.0,'11111222,11111222,99999999' 
TABS,ioos:station:wmo:42046:1,2004-11-04T05:00:00Z,27.8903,-94.0367,2.0,128.472069,12.87503398,-99999.0,'11111222,11111222,99999999' 
TABS,ioos:station:wmo:42046:1,2004-11-04T05:30:00Z,27.8903,-94.0367,2.0,116.6027955,13.55504703,-99999.0,'11111222,11111222,99999999' 
TABS,ioos:station:wmo:42046:1,2004-11-04T06:00:00Z,27.8903,-94.0367,2.0,134.4014464,12.862974,-99999.0,'11111222,11111222,99999999' 
TABS,ioos:station:wmo:42046:1,2004-11-04T06:30:00Z,27.8903,-94.0367,2.0,139.0011041,10.94440496,-99999.0,'11111222,11111222,99999999' 
TABS,ioos:station:wmo:42046:1,2004-11-04T07:00:00Z,27.8903,-94.0367,2.0,148.9679977,11.54186293,-99999.0,'11111222,11111222,99999999' 
TABS,ioos:station:wmo:42046:1,2004-11-04T07:30:00Z,27.8903,-94.0367,2.0,165.0079816,9.161844792,-99999.0,'11133222,11111222,99999999' 
TABS,ioos:station:wmo:42046:1,2004-11-04T08:00:00Z,27.8903,-94.0367,2.0,164.762798,8.332928657,-99999.0,'11133222,11111222,99999999' 
TABS,ioos:station:wmo:42046:1,2004-11-04T08:30:00Z,27.8903,-94.0367,2.0,159.2249625,7.048269291,-99999.0,'11133222,11111222,99999999' 
TABS,ioos:station:wmo:42046:1,2004-11-04T09:00:00Z,27.8903,-94.0367,2.0,145.9990899,2.557205506,-99999.0,'11133222,11111222,99999999' 
TABS,ioos:station:wmo:42046:1,2004-11-04T09:30:00Z,27.8903,-94.0367,2.0,173.5258487,2.838097955,-99999.0,'11133222,11111222,99999999' 
TABS,ioos:station:wmo:42046:1,2004-11-04T10:00:00Z,27.8903,-94.0367,2.0,161.9393598,1.451516448,-99999.0,'11133222,11111222,99999999' 
TABS,ioos:station:wmo:42046:1,2004-11-04T10:30:00Z,27.8903,-94.0367,2.0,225.4556082,2.665876966,-99999.0,'11133222,11111222,99999999' 
TABS,ioos:station:wmo:42046:1,2004-11-04T11:00:00Z,27.8903,-94.0367,2.0,125.3400243,2.02272094,-99999.0,'11133222,11111222,99999999' 
TABS,ioos:station:wmo:42046:1,2004-11-04T11:30:00Z,27.8903,-94.0367,2.0,165.4653684,0.836779541,-99999.0,'11133222,11111222,99999999' 
TABS,ioos:station:wmo:42046:1,2004-11-04T12:00:00Z,27.8903,-94.0367,2.0,242.7358973,1.833712082,-99999.0,'11133222,11111222,99999999' 
TABS,ioos:station:wmo:42046:1,2004-11-04T12:30:00Z,27.8903,-94.0367,2.0,330.3618961,1.33461605,-99999.0,'11133222,11111222,99999999' 
TABS,ioos:station:wmo:42046:1,2004-11-04T13:00:00Z,27.8903,-94.0367,2.0,265.1111896,1.525549081,-99999.0,'11133222,11111222,99999999' 
TABS,ioos:station:wmo:42046:1,2004-11-04T13:30:00Z,27.8903,-94.0367,2.0,146.8213555,3.417089405,-99999.0,'11133222,11111222,99999999' 
TABS,ioos:station:wmo:42046:1,2004-11-04T14:00:00Z,27.8903,-94.0367,2.0,260.4617575,3.741724201,-99999.0,'11133222,11111222,99999999' 
TABS,ioos:station:wmo:42046:1,2004-11-04T14:30:00Z,27.8903,-94.0367,2.0,317.8581125,4.39660096,-99999.0,'11133222,11111222,99999999' 
TABS,ioos:station:wmo:42046:1,2004-11-04T15:00:00Z,27.8903,-94.0367,2.0,11.65947585,1.929818644,-99999.0,'11133222,11111222,99999999' 
TABS,ioos:station:wmo:42046:1,2004-11-04T15:30:00Z,27.8903,-94.0367,2.0,294.7755036,2.577207791,-99999.0,'11133222,11111222,99999999' 
TABS,ioos:station:wmo:42046:1,2004-11-04T16:00:00Z,27.8903,-94.0367,2.0,264.9571398,0.682641927,-99999.0,'11133222,11111222,99999999' 